Regional Weather Roundup
Issued by NWS State College, PA

Home | Current Version | Previous Version | Text Only | Print | Product List | Glossary On
Versions: 1 2 3 4 5 6 7 8 9 10 11 12 13 14 15 16 17 18 19 20 21 22 23 24 25 26 27 28 29 30 31 32 33 34 35 36 37 38 39 40 41 42 43 44 45 46 47 48 49 50
000
ASUS41 KCTP 110110
RWRCTP

REGIONAL WEATHER ROUNDUP
NATIONAL WEATHER SERVICE STATE COLLEGE PA
800 PM EST SAT DEC 10 2016

Note: "fair" indicates few or no clouds below 12,000 feet with no
significant weather and/or obstructions to visibility.

* = STATION THAT DOES NOT REPORT PRECIPITATION /E.G. RAIN...SNOW...ETC/
    THUNDER OR FOG.

PAZ002>004-007>009-013>016-020>023-029>032-110200-
WESTERN PENNSYLVANIA

CITY           SKY/WX    TMP DP  RH WIND       PRES   REMARKS
ERIE           CLOUDY    24  14  65 SW13      30.40F WCI  12
MEADVILLE      CLEAR     19  11  70 S7        30.39R WCI  10
FRANKLIN*        N/A     18   9  68 SW7       30.40S WCI   8
NEW CASTLE     CLOUDY    24  16  71 SW7       30.45S
BEAVER COUNTY  CLOUDY    23  18  80 SW3       30.43S
BUTLER*        CLOUDY    23  16  74 SW9       30.46R WCI  13
PITTSBURGH INT FLURRIES  24  17  74 SW5       30.44S
PITTSBURGH     PTCLDY    22  12  65 W5        30.44S
INDIANA*       CLOUDY    23  18  80 W8        30.45S WCI  14
LATROBE        CLOUDY    21  14  73 W6        30.46S WCI  14
WASHINGTON CO* CLOUDY    25  12  58 SW3       30.45S
$$

PAZ004>006-010>012-017>019-024>028-033>037-041-042-045-046-049>053-110200-
CENTRAL PENNSYLVANIA

CITY           SKY/WX    TMP DP  RH WIND       PRES   REMARKS
BRADFORD       CLOUDY    17  15  92 SW6       30.31S WCI   9
DUBOIS         CLEAR     17  11  77 SW6       30.36S WCI   9
CLEARFIELD     CLEAR     20  13  74 W6        30.40R WCI  12
JOHNSTOWN      CLOUDY    19  15  84 W10       30.35S WCI   7
ALTOONA        CLEAR     20  13  74 W7        30.42S WCI  11
STATE COLLEGE  CLEAR     19  14  79 SW7       30.41S WCI  10
WILLIAMSPORT   PTCLDY    25  16  68 W7        30.43S
SELINSGROVE    CLEAR     26  16  65 CALM      30.46S
FT INDIANTOWN  CLEAR     26  15  62 W5        30.46R
CAPITAL CITY   CLEAR     28  13  53 W7        30.48S
HARRISBURG     CLEAR     29  16  58 W7        30.48R
YORK           CLEAR     23  13  65 W3        30.48R
$$

PAZ038>040-043-044-047-048-054-055-060>062-067>071-110200-
EASTERN PENNSYLVANIA

CITY           SKY/WX    TMP DP  RH WIND       PRES   REMARKS
SCRANTON       MOCLDY    26  16  65 S3        30.39R
MOUNT POCONO   MOCLDY    20  12  71 W8        30.32R WCI  10
ALLENTOWN      CLEAR     27  15  61 W7        30.44R
QUAKERTOWN*    CLEAR     27  16  63 W6        30.45R
READING        CLEAR     27  15  61 W6        30.46R
LANCASTER      CLEAR     26  17  68 W6        30.47R
COATESVILLE    CLEAR     25  16  68 NW8       30.46S
POTTSTOWN      CLEAR     26  15  63 VRB5      30.47R
BLUE BELL      CLEAR     30  18  59 W5        30.46R
DOYLESTOWN     CLEAR     30  15  53 W6        30.44R
WILLOW GROVE   NOT AVBL
NORTH PHILA    CLEAR     31  15  52 NW13      30.48R
PHILADELPHIA   CLEAR     32  14  47 W8        30.49R
$$



USA.gov is the U.S. government's official web portal to all federal, state and local government web resources and services.